AMC-15

Last updated on Fri Dec 19 2025 00:02:49 GMT+0000 (Coordinated Universal Time)

1 28446U 04041A 25352.60448159 -.00000064 00000+0 00000+0 0 9996 2 28446 0.0171 6.2327 0002204 253.2430 300.5534 1.00270998 77495
UTC large
Height (km)
Speed (km/s)
/
Latitude / Longitude
Inclination (degrees)
Orbital Period (minutes)
Azimuth
Elevation
Range (km)
Doppler Factor

Next 0 passes for location: London (51.5072 / 0.1276)

Sorry there are no passes over London.